[Iaude] MPEC C141: 2024 BZ10 [a=1.15,e=0.08,i=9.4,H=23.7]

mpec at cfa.harvard.edu mpec at cfa.harvard.edu
Tue Feb 13 02:38:10 EST 2024


M.P.E.C. 2024-C141                            Issued 2024 February 13, 07:36 UT

     The Minor Planet Electronic Circulars contain information on unusual
         minor planets, routine data on comets and natural satellites,
         and occasional editorial announcements.  They are published
    on behalf of Division F of the International Astronomical Union by the
          Minor Planet Center, Smithsonian Astrophysical Observatory,
                          Cambridge, MA 02138, U.S.A.
			  
             Prepared using the Tamkin Foundation Computer Network

                              MPC at CFA.HARVARD.EDU
            URL https://www.minorplanetcenter.net/    ISSN 1523-6714

                                   2024 BZ10                                    


Observations:
     K24B10Z* C2024 01 20.64181011 47 39.943-06 16 00.40         21.22wXEC141F52
     K24B10Z  C2024 01 20.65026911 47 42.058-06 15 43.74         21.80wXEC141F52
     K24B10Z  C2024 01 20.65870011 47 44.128-06 15 26.82         21.46wXEC141F52
     K24B10Z  C2024 01 21.62604311 52 04.320-05 42 20.12         21.55GVEC141F52
     K24B10Z  C2024 01 21.62686011 52 04.518-05 42 18.73         21.57GVEC141F52
     K24B10Z  C2024 01 23.61843012 01 08.091-04 28 52.84         21.16GVEC141F52
     K24B10Z  C2024 01 23.61924912 01 08.294-04 28 51.01         21.39GVEC141F52
     K24B10Z  C2024 02 09.53599213 24 11.617+10 21 02.31         21.35GVEC141F52
     K24B10Z  C2024 02 09.53681213 24 11.858+10 21 05.67         21.40GVEC141F52
     K24B10Z HC2024 02 13.17487 13 42 27.35 +14 13 50.4                VEC141204
     K24B10Z KC2024 02 13.20389 13 42 35.48 +14 15 42.4          21.4 GVEC141204

Observer details:
204 Schiaparelli Observatory.  Observer L. Buzzi.  0.84-m f/3.5 reflector +
    CMO.
F52 Pan-STARRS 2, Haleakala.  Observers J. Herman, T. Lowe, P. Minguez, A.
    Schultz, I. Smith.  Measurers K. Chambers, T. de Boer, J. Fairlamb, H.
    Gao, M. Huber, C.-C. Lin, E. Magnier, Y. Ramanjooloo, R. Wainscoat, R.
    Weryk.  1.8-m Ritchey-Chretien + CCD.

Orbital elements:
2024 BZ10                                                Earth MOID = 0.0749 AU
Epoch 2023 Sept. 13.0 TT = JDT 2460200.5                MPC                     
M 228.27831              (2000.0)            P               Q                  
n   0.79812300     Peri.   27.09211     -0.93487378     -0.33407159             
a   1.1510376      Node   132.85549     +0.28875933     -0.91235006             
e   0.0832958      Incl.    9.42380     +0.20646809     -0.23667179             
P   1.23           H   23.79          G   0.15           U   7                  
Residuals in seconds of arc
240120 F52  0.6-  0.4+    240121 F52  0.1-  0.0     240209 F52  0.0   0.1+
240120 F52  0.0   0.1+    240123 F52  0.1+  0.0     240213 204  0.3-  0.1-
240120 F52  0.0   0.0     240123 F52  0.1+  0.1-    240213 204  0.4+  0.0
240121 F52  0.0   0.3+    240209 F52  0.2-  0.1-

Ephemeris:
2024 BZ10                a,e,i = 1.15, 0.08, 9                   q = 1.0552
Date    TT    R. A. (2000) Decl.     Delta      r    Elong.  Phase     V
2024 01 14    11 19 19.1 -09 19 30   0.1705  1.0738   117.8    54.1    22.1
...
2024 01 29    12 26 33.9 -00 34 26   0.1362  1.0630   121.9    51.9    21.5
...
2024 02 06    13 06 17.0 +06 42 30   0.1253  1.0590   122.8    51.5    21.3
...
2024 02 12    13 36 34.5 +12 58 41   0.1211  1.0569   122.4    52.0    21.2
2024 02 13    13 41 35.2 +14 03 08   0.1208  1.0566   122.3    52.2    21.2
2024 02 14    13 46 34.6 +15 07 41   0.1206  1.0564   122.1    52.4    21.2
...
2024 02 20    14 15 48.7 +21 28 24   0.1211  1.0553   120.6    53.8    21.3
...
2024 02 28    14 51 44.7 +29 06 38   0.1261  1.0551   117.8    56.1    21.4
...
2024 03 14    15 44 15.1 +39 40 49   0.1435  1.0584   112.9    59.9    21.8

A. U. Tomatic                (C) Copyright 2024 MPC           M.P.E.C. 2024-C141





More information about the Iaude mailing list